Location: Karcze
(52.0945°N, 22.4786°E)
Time: 22:39:39
(UTC+00:00)

Transit 4A - Pass Details

Date: 28 July 2021
Orbit: 871 x 974 km, 66.8° (Epoch: 18 September)

Event Time Altitude Azimuth Distance (km) Brightness Sun altitude
Exits shadow 23:55:25 25° 222° (SW) 1,688 8.7 -17.1°
Maximum altitude 23:58:57 84° 309° (NW) 886 7.8 -16.9°
Drops below altitude 10° 00:04:48 10° 38° (NE) 2,529 11.4 -16.6°
Sets 00:07:17 0° 39° (NE) 3,471 12.4 -16.5°
